Torna al catalogo

PEGASUS R/B

AttivoUNKNOWN
NORAD 28983·ROCKET BODY·🇺🇸 United States

Lanciato Mar 22, 2006 da Vandenberg Space Force Base

Loading…

Prossimi Passaggi (prossime 24 ore)

TLE

AggiornatoSource: Space-Track

Epoca: Sep 14, 2026, 08:21 UTC

1 28983U 06008D   26257.34839618  .00016509  29966-5  54694-3 0  9997
2 28983 105.5194  39.9850 1526326  65.1145 310.0687 12.42964636837790

Traccia PEGASUS R/B in tempo reale con AllMySat

Download on the App Store